DELTA 2 R/B(1)

Last updated on Tue Sep 16 2025 00:02:14 GMT+0000 (Coordinated Universal Time)

1 20453U 90008B 25258.59503796 .00033236 00000+0 66385-3 0 9994 2 20453 35.6066 226.4240 0124315 97.4091 264.0785 15.37810617899027
UTC large
Height (km)
Speed (km/s)
/
Latitude / Longitude
Inclination (degrees)
Orbital Period (minutes)
Azimuth
Elevation
Range (km)
Doppler Factor

Next 0 passes for location: London (51.5072 / 0.1276)

Sorry there are no passes over London.